This is the latest recevied weather packets stored in our database for station/object XQ6AK-15. If no packets are shown the sender has not sent any weather packets the latest 10 day(s).
| Time | Temp. | Humidity | Pressure | Rain* | Wind** | Luminosity | Snow |
|---|---|---|---|---|---|---|---|
| 1787978841 | 8.33° C | 99% | 1006.7 hPa | 1.78 mm | - | 0 W/m² | - |
| 1787978536 | 8.33° C | 99% | 1006.8 hPa | 0 mm | - | 0 W/m² | - |
| 1787978232 | 8.33° C | 99% | 1006.6 hPa | 0 mm | - | 0 W/m² | - |
| 1787977931 | 8.33° C | 99% | 1006.5 hPa | 1.78 mm | - | 0 W/m² | - |
| 1787977630 | 8.33° C | 99% | 1006.6 hPa | 1.78 mm | - | 0 W/m² | - |
| 1787977326 | 8.33° C | 99% | 1006.7 hPa | 0 mm | - | 0 W/m² | - |
| 1787977022 | 8.33° C | 99% | 1006.5 hPa | 1.27 mm | - | 0 W/m² | - |
| 1787976716 | 8.33° C | 99% | 1006.9 hPa | 1.27 mm | - | 0 W/m² | - |
| 1787976412 | 8.33° C | 99% | 1006.8 hPa | 3.05 mm | - | 0 W/m² | - |
| 1787976106 | 8.33° C | 99% | 1006.6 hPa | 8.89 mm | - | 0 W/m² | - |
| 1787975805 | 8.33° C | 99% | 1006.7 hPa | 7.87 mm | - | 0 W/m² | - |
| 1787975504 | 8.33° C | 99% | 1006.8 hPa | 1.78 mm | - | 0 W/m² | - |
| 1787975203 | 8.33° C | 99% | 1006.6 hPa | 0 mm | - | 0 W/m² | - |
| 1787974902 | 8.33° C | 99% | 1006.7 hPa | 0 mm | - | 0 W/m² | - |
| 1787974601 | 8.33° C | 99% | 1006.8 hPa | 1.27 mm | - | 0 W/m² | - |
| 1787974297 | 8.33° C | 99% | 1007 hPa | 0 mm | - | 0 W/m² | - |
| 1787973995 | 7.78° C | 99% | 1006.8 hPa | 0 mm | - | 0 W/m² | - |
| 1787973691 | 7.78° C | 99% | 1006.9 hPa | 0 mm | - | 0 W/m² | - |
| 1787973385 | 7.78° C | 99% | 1006.8 hPa | 0 mm | - | 0 W/m² | - |
| 1787973080 | 8.33° C | 99% | 1006.8 hPa | 0 mm | - | 0 W/m² | - |
| 1787972775 | 8.33° C | 99% | 1006.8 hPa | 1.78 mm | - | 0 W/m² | - |
| 1787972475 | 8.33° C | 99% | 1006.9 hPa | 1.78 mm | - | 0 W/m² | - |
| 1787972168 | 8.33° C | 99% | 1006.9 hPa | 0 mm | - | 0 W/m² | - |
| 1787971863 | 8.33° C | 99% | 1007.1 hPa | 0 mm | - | 0 W/m² | - |
| 1787971559 | 8.33° C | 99% | 1006.9 hPa | 0 mm | - | 0 W/m² | - |
* Rain latest hour (hover to see other rain measurements)
** Current wind speed in m/s (hover to see current wind gust speed)